Location: Unspecified
(48.5670°N, 0.0000°E)
Time: 13:01:54
(UTC+00:00)

Altair - Pass Details

Date: 02 September 2019
Orbit: 1501 x 1682 km, 47.2° (Epoch: 22 October)

Event Time Altitude Azimuth Distance (km) Brightness Sun altitude
Exits shadow 02:50:28 25° 262° (W) 2,875 8.5 -22.1°
Maximum altitude 02:57:06 84° 177° (S) 1,613 7.5 -21.3°
Drops below altitude 10° 03:06:39 10° 91° (E) 3,743 10.2 -20.2°
Sets 03:09:39 0° 91° (E) 4,704 10.8 -19.8°
